| time (UTC) | temp C | wind direction | speed KPH | gust KPH | rain 1hr cm | rain 24hr cm | rain mn cm | humidity % | barometer mb |
| 20260504044018 | 4 | 159 | 0.0 | 0.0 | 0.00 | 0.00 | 0.00 | 73 | 1009.8 |
| 20260504043517 | 4 | 159 | 0.0 | 0.0 | 0.00 | 0.00 | 0.00 | 72 | 1009.8 |
| 20260504043016 | 4 | 159 | 0.0 | 0.0 | 0.00 | 0.00 | 0.00 | 73 | 1009.8 |
| 20260504042515 | 4 | 159 | 0.0 | 0.0 | 0.00 | 0.00 | 0.00 | 74 | 1009.7 |
| 20260504042014 | 4 | 159 | 0.0 | 0.0 | 0.00 | 0.00 | 0.00 | 75 | 1009.6 |
| 20260504041511 | 4 | 159 | 0.0 | 0.0 | 0.00 | 0.00 | 0.00 | 75 | 1009.5 |
| 20260504041011 | 4 | 159 | 0.0 | 0.0 | 0.00 | 0.00 | 0.00 | 75 | 1009.5 |
| 20260504040509 | 4 | 159 | 0.0 | 0.0 | 0.00 | 0.00 | 0.00 | 74 | 1009.5 |
| 20260504040008 | 5 | 159 | 0.0 | 0.0 | 0.00 | 0.00 | 0.00 | 74 | 1009.6 |
| 20260504035507 | 5 | 159 | 0.0 | 0.0 | 0.00 | 0.00 | 0.00 | 73 | 1009.5 |
| 20260504035006 | 5 | 159 | 0.0 | 0.0 | 0.00 | 0.00 | 0.00 | 72 | 1009.4 |
| 20260504034505 | 5 | 159 | 0.0 | 0.0 | 0.00 | 0.00 | 0.00 | 71 | 1009.4 |
| 20260504034004 | 5 | 159 | 0.0 | 0.0 | 0.00 | 0.00 | 0.00 | 71 | 1009.3 |
| 20260504033504 | 5 | 159 | 0.0 | 0.0 | 0.00 | 0.00 | 0.00 | 70 | 1009.3 |
| 20260504033003 | 5 | 159 | 0.0 | 0.0 | 0.00 | 0.00 | 0.00 | 71 | 1009.2 |
| 20260504032503 | 5 | 159 | 0.0 | 0.0 | 0.00 | 0.00 | 0.00 | 71 | 1009.2 |
| 20260504032001 | 5 | 159 | 0.0 | 0.0 | 0.00 | 0.00 | 0.00 | 70 | 1009.2 |
| 20260504031604 | 5 | 159 | 0.0 | 0.0 | 0.00 | 0.00 | 0.00 | 70 | 1009.2 |
| 20260504031059 | 5 | 159 | 0.0 | 0.0 | 0.00 | 0.00 | 0.00 | 70 | 1009.1 |
| 20260504030559 | 5 | 159 | 0.0 | 0.0 | 0.00 | 0.00 | 0.00 | 68 | 1009.1 |
| 20260504030104 | 5 | 159 | 0.0 | 0.0 | 0.00 | 0.00 | 0.00 | 69 | 1009.1 |
| 20260504025558 | 5 | 159 | 0.0 | 0.0 | 0.00 | 0.00 | 0.00 | 70 | 1009.0 |
| 20260504025057 | 5 | 159 | 0.0 | 0.0 | 0.00 | 0.00 | 0.00 | 71 | 1009.1 |
| 20260504024556 | 5 | 159 | 0.0 | 0.0 | 0.00 | 0.00 | 0.00 | 71 | 1009.0 |
| 20260504024102 | 5 | 159 | 0.0 | 0.0 | 0.00 | 0.00 | 0.00 | 70 | 1009.0 |
| 20260504023556 | 5 | 159 | 0.0 | 0.0 | 0.00 | 0.00 | 0.00 | 71 | 1009.0 |
| 20260504023103 | 6 | 159 | 0.0 | 0.0 | 0.00 | 0.00 | 0.00 | 71 | 1009.0 |
| 20260504022558 | 5 | 159 | 0.0 | 0.0 | 0.00 | 0.00 | 0.00 | 71 | 1009.0 |
| 20260504022054 | 5 | 159 | 0.0 | 0.0 | 0.00 | 0.00 | 0.00 | 70 | 1009.0 |
| 20260504021554 | 6 | 159 | 0.0 | 0.0 | 0.00 | 0.00 | 0.00 | 69 | 1009.0 |
| 20260504021053 | 6 | 159 | 0.0 | 0.0 | 0.00 | 0.00 | 0.00 | 68 | 1009.0 |
| 20260504020553 | 6 | 159 | 0.0 | 0.0 | 0.00 | 0.00 | 0.00 | 65 | 1009.0 |
| 20260504020058 | 6 | 159 | 0.0 | 0.0 | 0.00 | 0.00 | 0.00 | 65 | 1008.9 |
| 20260504015551 | 6 | 159 | 0.0 | 0.0 | 0.00 | 0.00 | 0.00 | 62 | 1009.0 |
| 20260504015050 | 6 | 159 | 0.0 | 0.0 | 0.00 | 0.00 | 0.00 | 61 | 1008.9 |
| 20260504014550 | 6 | 159 | 0.0 | 0.0 | 0.00 | 0.00 | 0.00 | 61 | 1008.9 |
| 20260504014047 | 6 | 159 | 0.0 | 0.0 | 0.00 | 0.00 | 0.00 | 62 | 1008.8 |
| 20260504013547 | 7 | 159 | 0.0 | 0.0 | 0.00 | 0.00 | 0.00 | 62 | 1008.8 |
| 20260504013054 | 7 | 159 | 0.0 | 0.0 | 0.00 | 0.00 | 0.00 | 61 | 1008.7 |
| 20260504012645 | 7 | 159 | 0.0 | 0.0 | 0.00 | 0.00 | 0.00 | 60 | 1008.6 |
| 20260504012046 | 7 | 159 | 0.0 | 0.0 | 0.00 | 0.00 | 0.00 | 58 | 1008.6 |
| 20260504011544 | 8 | 159 | 0.0 | 0.0 | 0.00 | 0.00 | 0.00 | 57 | 1008.5 |
| 20260504011042 | 8 | 159 | 0.0 | 0.0 | 0.00 | 0.00 | 0.00 | 56 | 1008.4 |
| 20260504010542 | 8 | 159 | 0.0 | 0.0 | 0.00 | 0.00 | 0.00 | 55 | 1008.3 |
| 20260504010051 | 8 | 159 | 0.0 | 0.0 | 0.00 | 0.00 | 0.00 | 56 | 1008.3 |
| 20260504005542 | 8 | 159 | 0.0 | 0.0 | 0.00 | 0.00 | 0.00 | 55 | 1008.2 |
| 20260504005042 | 9 | 159 | 0.0 | 0.0 | 0.00 | 0.00 | 0.00 | 52 | 1008.1 |
| 20260504004557 | 9 | 159 | 0.0 | 0.0 | 0.00 | 0.00 | 0.00 | 52 | 1008.1 |
| 20260504004041 | 9 | 159 | 0.0 | 0.0 | 0.00 | 0.00 | 0.00 | 51 | 1008.0 |
| 20260504003541 | 10 | 159 | 0.0 | 0.0 | 0.00 | 0.00 | 0.00 | 48 | 1007.9 |
| 20260504003041 | 10 | 159 | 0.0 | 0.0 | 0.00 | 0.00 | 0.00 | 47 | 1007.9 |
| 20260504002542 | 10 | 159 | 0.0 | 0.0 | 0.00 | 0.00 | 0.00 | 46 | 1007.9 |
| 20260504002041 | 10 | 159 | 0.0 | 0.0 | 0.00 | 0.00 | 0.00 | 44 | 1007.8 |
| 20260504001541 | 10 | 159 | 0.0 | 1.6 | 0.00 | 0.00 | 0.00 | 44 | 1007.7 |
| 20260504001042 | 10 | 160 | 0.0 | 1.6 | 0.00 | 0.00 | 0.00 | 43 | 1007.7 |
| 20260504000541 | 11 | 160 | 0.0 | 3.2 | 0.00 | 0.00 | 0.00 | 43 | 1007.6 |
| 20260504000041 | 11 | 353 | 0.0 | 3.2 | 0.00 | 0.00 | 0.00 | 42 | 1007.6 |
| 20260503235540 | 11 | 360 | 0.0 | 8.0 | 0.00 | 0.00 | 0.00 | 42 | 1007.6 |
| 20260503235041 | 11 | 351 | 0.0 | 8.0 | 0.00 | 0.00 | 0.00 | 42 | 1007.5 |
| 20260503234543 | 11 | 352 | 0.0 | 8.0 | 0.00 | 0.00 | 0.00 | 42 | 1007.4 |
| 20260503234040 | 11 | 7 | 0.0 | 8.0 | 0.00 | 0.00 | 0.00 | 41 | 1007.4 |
| 20260503233543 | 11 | 13 | 1.6 | 8.0 | 0.00 | 0.00 | 0.00 | 40 | 1007.3 |
| 20260503233040 | 11 | 353 | 0.0 | 8.0 | 0.00 | 0.00 | 0.00 | 41 | 1007.3 |
| 20260503232543 | 11 | 160 | 0.0 | 8.0 | 0.00 | 0.00 | 0.00 | 40 | 1007.3 |
| 20260503232039 | 12 | 80 | 1.6 | 11.3 | 0.00 | 0.00 | 0.00 | 39 | 1007.3 |
| 20260503231539 | 12 | 346 | 1.6 | 16.1 | 0.00 | 0.00 | 0.00 | 39 | 1007.2 |
| 20260503231039 | 12 | 8 | 3.2 | 16.1 | 0.00 | 0.00 | 0.00 | 39 | 1007.1 |
| 20260503230539 | 12 | 58 | 0.0 | 17.7 | 0.00 | 0.00 | 0.00 | 39 | 1007.1 |
| 20260503230040 | 12 | 7 | 4.8 | 17.7 | 0.00 | 0.00 | 0.00 | 38 | 1006.9 |
| 20260503225538 | 12 | 358 | 3.2 | 17.7 | 0.00 | 0.00 | 0.00 | 40 | 1006.8 |
| 20260503225038 | 12 | 19 | 3.2 | 16.1 | 0.00 | 0.00 | 0.00 | 39 | 1006.7 |
| 20260503224537 | 12 | 6 | 1.6 | 24.1 | 0.00 | 0.00 | 0.00 | 40 | 1006.6 |
| 20260503224038 | 12 | 159 | 3.2 | 24.1 | 0.00 | 0.00 | 0.00 | 38 | 1006.6 |
| 20260503223536 | 12 | 338 | 4.8 | 17.7 | 0.00 | 0.00 | 0.00 | 38 | 1006.6 |
| 20260503223036 | 12 | 151 | 4.8 | 20.9 | 0.00 | 0.00 | 0.00 | 38 | 1006.4 |
| 20260503222534 | 12 | 2 | 3.2 | 20.9 | 0.00 | 0.00 | 0.00 | 39 | 1006.4 |
| 20260503222034 | 12 | 1 | 4.8 | 14.5 | 0.00 | 0.00 | 0.00 | 37 | 1006.3 |
| 20260503221541 | 12 | 13 | 4.8 | 12.9 | 0.00 | 0.00 | 0.00 | 38 | 1006.3 |
| 20260503221034 | 13 | 5 | 3.2 | 12.9 | 0.00 | 0.00 | 0.00 | 38 | 1006.2 |
| 20260503220534 | 12 | 6 | 1.6 | 11.3 | 0.00 | 0.00 | 0.00 | 39 | 1006.1 |
| 20260503220034 | 12 | 330 | 3.2 | 11.3 | 0.00 | 0.00 | 0.00 | 39 | 1006.1 |
| 20260503215534 | 12 | 1 | 1.6 | 16.1 | 0.00 | 0.00 | 0.00 | 39 | 1006.1 |
| 20260503215033 | 12 | 357 | 4.8 | 16.1 | 0.00 | 0.00 | 0.00 | 39 | 1006.0 |
| 20260503214534 | 12 | 16 | 3.2 | 16.1 | 0.00 | 0.00 | 0.00 | 41 | 1005.9 |
| 20260503214035 | 12 | 356 | 3.2 | 17.7 | 0.00 | 0.00 | 0.00 | 38 | 1005.9 |
| 20260503213532 | 12 | 354 | 4.8 | 17.7 | 0.00 | 0.00 | 0.00 | 39 | 1005.9 |
| 20260503213041 | 12 | 11 | 4.8 | 16.1 | 0.00 | 0.00 | 0.00 | 39 | 1005.8 |
| 20260503212532 | 12 | 17 | 4.8 | 16.1 | 0.00 | 0.00 | 0.00 | 38 | 1005.7 |
| 20260503212032 | 12 | 13 | 3.2 | 11.3 | 0.00 | 0.00 | 0.00 | 38 | 1005.6 |
| 20260503211531 | 13 | 340 | 3.2 | 17.7 | 0.00 | 0.00 | 0.00 | 39 | 1005.6 |
| 20260503211031 | 13 | 8 | 6.4 | 17.7 | 0.00 | 0.00 | 0.00 | 38 | 1005.4 |
| 20260503210530 | 12 | 3 | 9.7 | 22.5 | 0.00 | 0.00 | 0.00 | 37 | 1005.4 |
| 20260503210030 | 12 | 10 | 4.8 | 22.5 | 0.00 | 0.00 | 0.00 | 39 | 1005.3 |
| 20260503205530 | 12 | 31 | 6.4 | 20.9 | 0.00 | 0.00 | 0.00 | 39 | 1005.2 |
| 20260503205030 | 12 | 288 | 4.8 | 17.7 | 0.00 | 0.00 | 0.00 | 39 | 1005.1 |
| 20260503204544 | 12 | 172 | 3.2 | 14.5 | 0.00 | 0.00 | 0.00 | 40 | 1005.2 |
| 20260503204029 | 12 | 128 | 4.8 | 14.5 | 0.00 | 0.00 | 0.00 | 41 | 1005.0 |
| 20260503203529 | 12 | 19 | 3.2 | 14.5 | 0.00 | 0.00 | 0.00 | 40 | 1005.0 |
| 20260503203131 | 12 | 215 | 3.2 | 12.9 | 0.00 | 0.00 | 0.00 | 40 | 1004.9 |
| 20260503202528 | 12 | 337 | 3.2 | 22.5 | 0.00 | 0.00 | 0.00 | 40 | 1004.8 |
| 20260503202029 | 12 | 188 | 3.2 | 22.5 | 0.00 | 0.00 | 0.00 | 39 | 1004.8 |
| 20260503201529 | 12 | 269 | 3.2 | 22.5 | 0.00 | 0.00 | 0.00 | 40 | 1004.9 |
| 20260503201028 | 12 | 171 | 4.8 | 22.5 | 0.00 | 0.00 | 0.00 | 40 | 1004.8 |
| 20260503200528 | 12 | 332 | 4.8 | 16.1 | 0.00 | 0.00 | 0.00 | 41 | 1004.8 |
| 20260503200028 | 12 | 1 | 4.8 | 16.1 | 0.00 | 0.00 | 0.00 | 40 | 1004.7 |
| 20260503195527 | 12 | 351 | 4.8 | 16.1 | 0.00 | 0.00 | 0.00 | 40 | 1004.7 |
| 20260503195027 | 12 | 13 | 1.6 | 16.1 | 0.00 | 0.00 | 0.00 | 40 | 1004.7 |
| 20260503194527 | 12 | 339 | 3.2 | 16.1 | 0.00 | 0.00 | 0.00 | 40 | 1004.7 |
| 20260503194028 | 12 | 349 | 4.8 | 16.1 | 0.00 | 0.00 | 0.00 | 40 | 1004.7 |
| 20260503193526 | 12 | 316 | 3.2 | 16.1 | 0.00 | 0.00 | 0.00 | 40 | 1004.7 |
| 20260503193033 | 12 | 313 | 1.6 | 17.7 | 0.00 | 0.00 | 0.00 | 41 | 1004.8 |
| 20260503192525 | 12 | 24 | 6.4 | 24.1 | 0.00 | 0.00 | 0.00 | 40 | 1004.7 |
| 20260503192023 | 12 | 4 | 9.7 | 24.1 | 0.00 | 0.00 | 0.00 | 40 | 1004.7 |
| 20260503191523 | 12 | 336 | 8.0 | 20.9 | 0.00 | 0.00 | 0.00 | 41 | 1004.8 |
| 20260503191023 | 12 | 22 | 4.8 | 20.9 | 0.00 | 0.00 | 0.00 | 42 | 1004.7 |
| 20260503190522 | 12 | 8 | 6.4 | 20.9 | 0.00 | 0.00 | 0.00 | 42 | 1004.8 |
| 20260503190021 | 12 | 114 | 4.8 | 16.1 | 0.00 | 0.00 | 0.00 | 42 | 1004.7 |
| 20260503185520 | 12 | 327 | 3.2 | 19.3 | 0.00 | 0.03 | 0.00 | 44 | 1004.7 |
| 20260503185019 | 12 | 200 | 4.8 | 19.3 | 0.00 | 0.03 | 0.00 | 42 | 1004.7 |
| 20260503184532 | 12 | 156 | 1.6 | 17.7 | 0.00 | 0.03 | 0.00 | 41 | 1004.7 |
| 20260503184020 | 12 | 360 | 1.6 | 16.1 | 0.00 | 0.03 | 0.00 | 42 | 1004.7 |
| 20260503183517 | 12 | 1 | 4.8 | 12.9 | 0.00 | 0.03 | 0.00 | 43 | 1004.7 |
| 20260503183016 | 12 | 6 | 4.8 | 12.9 | 0.00 | 0.03 | 0.00 | 43 | 1004.7 |
| 20260503182515 | 12 | 352 | 3.2 | 11.3 | 0.00 | 0.03 | 0.00 | 43 | 1004.7 |
| 20260503182015 | 12 | 150 | 3.2 | 11.3 | 0.00 | 0.03 | 0.00 | 44 | 1004.7 |
| 20260503181514 | 12 | 306 | 3.2 | 17.7 | 0.00 | 0.03 | 0.00 | 43 | 1004.8 |
| 20260503181014 | 12 | 296 | 4.8 | 17.7 | 0.00 | 0.03 | 0.00 | 44 | 1004.7 |
| 20260503180513 | 12 | 23 | 4.8 | 19.3 | 0.00 | 0.03 | 0.00 | 44 | 1004.7 |
| 20260503180020 | 12 | 30 | 4.8 | 19.3 | 0.00 | 0.03 | 0.00 | 43 | 1004.8 |
| 20260503175510 | 12 | 349 | 3.2 | 11.3 | 0.00 | 0.03 | 0.00 | 45 | 1004.6 |
| 20260503175010 | 12 | 10 | 3.2 | 14.5 | 0.00 | 0.03 | 0.00 | 45 | 1004.6 |
| 20260503174508 | 12 | 335 | 3.2 | 19.3 | 0.00 | 0.03 | 0.00 | 45 | 1004.7 |
| 20260503174106 | 12 | 27 | 4.8 | 19.3 | 0.00 | 0.03 | 0.00 | 45 | 1004.7 |
| 20260503173505 | 12 | 27 | 9.7 | 17.7 | 0.00 | 0.03 | 0.00 | 44 | 1004.8 |
| 20260503173005 | 12 | 28 | 6.4 | 17.7 | 0.00 | 0.03 | 0.00 | 46 | 1004.7 |
| 20260503172504 | 12 | 150 | 6.4 | 17.7 | 0.00 | 0.03 | 0.00 | 47 | 1004.8 |
| 20260503172002 | 12 | 351 | 4.8 | 12.9 | 0.00 | 0.03 | 0.00 | 49 | 1004.8 |
| 20260503171501 | 12 | 3 | 3.2 | 17.7 | 0.00 | 0.03 | 0.00 | 48 | 1004.8 |
| 20260503171100 | 12 | 17 | 8.0 | 17.7 | 0.00 | 0.03 | 0.00 | 49 | 1004.9 |
| 20260503170600 | 11 | 12 | 8.0 | 22.5 | 0.00 | 0.03 | 0.00 | 50 | 1004.9 |
| 20260503150548 | 10 | 344 | 6.4 | 22.5 | 0.00 | 0.03 | 0.00 | 61 | 1004.8 |
| 20260503131043 | 8 | 330 | 6.4 | 16.1 | 0.00 | 0.03 | 0.00 | 63 | 1004.8 |
| 20260503130540 | 8 | 12 | 6.4 | 17.7 | 0.00 | 0.03 | 0.00 | 64 | 1004.8 |
| 20260503110529 | 6 | 38 | 3.2 | 6.4 | 0.00 | 0.03 | 0.00 | 67 | 1005.6 |
| 20260503081510 | 8 | 360 | 1.6 | 8.0 | 0.00 | 0.03 | 0.00 | 56 | 1006.1 |
| 20260503081009 | 8 | 353 | 0.0 | 4.8 | 0.00 | 0.03 | 0.00 | 57 | 1006.1 |
| 20260503080509 | 8 | 353 | 1.6 | 6.4 | 0.00 | 0.03 | 0.00 | 56 | 1006.2 |
| 20260503072504 | 8 | 341 | 1.6 | 8.0 | 0.00 | 0.03 | 0.00 | 55 | 1006.5 |
| 20260503072006 | 8 | 8 | 3.2 | 11.3 | 0.00 | 0.03 | 0.00 | 54 | 1006.4 |
| 20260503071509 | 8 | 7 | 1.6 | 11.3 | 0.00 | 0.03 | 0.00 | 54 | 1006.2 |
| 20260503071003 | 8 | 13 | 3.2 | 9.7 | 0.00 | 0.03 | 0.00 | 54 | 1006.4 |
| 20260503070501 | 8 | 5 | 3.2 | 9.7 | 0.00 | 0.03 | 0.00 | 54 | 1006.5 |
| 20260503055050 | 9 | 15 | 0.0 | 9.7 | 0.00 | 0.03 | 0.00 | 56 | 1007.3 |
| 20260503054549 | 9 | 15 | 1.6 | 9.7 | 0.00 | 0.03 | 0.00 | 56 | 1007.3 |
| 20260503054048 | 9 | 334 | 1.6 | 9.7 | 0.00 | 0.03 | 0.00 | 56 | 1007.6 |
| 20260503053547 | 9 | 2 | 1.6 | 9.7 | 0.00 | 0.03 | 0.00 | 56 | 1007.8 |
| 20260503053046 | 9 | 5 | 1.6 | 9.7 | 0.00 | 0.03 | 0.00 | 56 | 1007.9 |
| 20260503052545 | 10 | 5 | 1.6 | 9.7 | 0.00 | 0.03 | 0.00 | 56 | 1007.8 |
| 20260503052044 | 10 | 34 | 1.6 | 9.7 | 0.00 | 0.03 | 0.00 | 57 | 1007.9 |
| 20260503051543 | 10 | 360 | 1.6 | 9.7 | 0.00 | 0.03 | 0.00 | 57 | 1007.9 |
| 20260503051043 | 10 | 3 | 3.2 | 9.7 | 0.00 | 0.03 | 0.00 | 56 | 1008.0 |
| 20260503050543 | 10 | 28 | 3.2 | 9.7 | 0.00 | 0.03 | 0.00 | 57 | 1007.9 |
| 20260503050042 | 10 | 3 | 3.2 | 8.0 | 0.00 | 0.03 | 0.00 | 57 | 1007.9 |
| 20260503045544 | 10 | 358 | 1.6 | 8.0 | 0.00 | 0.03 | 0.00 | 58 | 1007.9 |
| 20260503045043 | 10 | 5 | 1.6 | 8.0 | 0.00 | 0.03 | 0.00 | 59 | 1007.8 |
| 20260503044539 | 10 | 341 | 1.6 | 8.0 | 0.00 | 0.03 | 0.00 | 58 | 1008.0 |